When you browse on this site, cookies collect data to enhance your experience and personalize the content and advertising you see.
Visit our Privacy Policy to learn more. By continuing to use the site, you agree to this use of cookies and data.
  • In Deutschland
  • Länderverzeichnis
  • Für 7 Tage
  • Wassertemperatur
  • Wetterkarte
  • Widgets
  • user-avatar
    Anmelden

    Stündliche Wetter Megri

    Heute, 27 Januar, Montag

    Zeit Temperatur Niederschläge Wind Luftdruck Luftfeuchtigkeit
    00:00 -8°C° 0 mm 1 m/S 621 mmHg 53%
    01:00 -8°C° 0 mm 1 m/S 621 mmHg 53%
    02:00 -8°C° 0 mm 1 m/S 621 mmHg 52%
    03:00 -8°C° 0 mm 1 m/S 621 mmHg 51%
    04:00 -9°C° 0 mm 1 m/S 621 mmHg 51%
    05:00 -9°C° 0 mm 0 m/S 621 mmHg 51%
    06:00 -9°C° 0 mm 0 m/S 621 mmHg 51%
    07:00 -8°C° 0 mm 0 m/S 622 mmHg 54%
    08:00 -7°C° 0 mm 0 m/S 623 mmHg 57%
    09:00 -5°C° 0 mm 0 m/S 624 mmHg 62%
    10:00 -4°C° 0 mm 0 m/S 624 mmHg 62%
    11:00 -3°C° 0 mm 1 m/S 624 mmHg 61%
    12:00 -2°C° 0 mm 1 m/S 625 mmHg 60%
    13:00 -2°C° 0 mm 1 m/S 624 mmHg 65%
    14:00 -2°C° 0 mm 1 m/S 624 mmHg 69%
    15:00 -2°C° 0 mm 1 m/S 624 mmHg 73%
    16:00 -3°C° 0 mm 1 m/S 623 mmHg 71%
    17:00 -6°C° 0 mm 1 m/S 623 mmHg 70%
    18:00 -8°C° 0 mm 1 m/S 622 mmHg 68%
    19:00 -8°C° 0 mm 1 m/S 622 mmHg 65%
    20:00 -8°C° 0 mm 1 m/S 622 mmHg 62%
    21:00 -8°C° 0 mm 1 m/S 622 mmHg 59%
    22:00 -8°C° 0 mm 1 m/S 622 mmHg 58%
    23:00 -8°C° 0 mm 1 m/S 622 mmHg 57%

    Morgen, 28 Januar, Dienstag

    Zeit Temperatur Niederschläge Wind Luftdruck Luftfeuchtigkeit
    00:00 -8°C° 0 mm 1 m/S 622 mmHg 56%
    01:00 -8°C° 0 mm 1 m/S 622 mmHg 55%
    02:00 -8°C° 0 mm 1 m/S 621 mmHg 54%
    03:00 -8°C° 0 mm 1 m/S 621 mmHg 54%
    04:00 -8°C° 0 mm 1 m/S 621 mmHg 54%
    05:00 -8°C° 0 mm 1 m/S 621 mmHg 55%
    06:00 -8°C° 0 mm 1 m/S 620 mmHg 56%
    07:00 -8°C° 0 mm 2 m/S 621 mmHg 59%
    08:00 -7°C° 0 mm 2 m/S 621 mmHg 63%
    09:00 -6°C° 0 mm 2 m/S 622 mmHg 67%
    10:00 -5°C° 0 mm 2 m/S 622 mmHg 69%
    11:00 -4°C° 0 mm 2 m/S 622 mmHg 71%
    12:00 -3°C° 0 mm 2 m/S 621 mmHg 73%
    13:00 -3°C° 0 mm 2 m/S 621 mmHg 74%
    14:00 -3°C° 0 mm 2 m/S 620 mmHg 75%
    15:00 -3°C° 0 mm 2 m/S 620 mmHg 76%
    16:00 -4°C° 0 mm 2 m/S 619 mmHg 71%
    17:00 -5°C° 0 mm 2 m/S 619 mmHg 65%
    18:00 -7°C° 0 mm 2 m/S 619 mmHg 60%
    19:00 -7°C° 0 mm 2 m/S 619 mmHg 57%
    20:00 -7°C° 0 mm 2 m/S 619 mmHg 55%
    21:00 -7°C° 0 mm 2 m/S 619 mmHg 52%
    22:00 -7°C° 0 mm 2 m/S 619 mmHg 53%
    23:00 -7°C° 0 mm 2 m/S 618 mmHg 54%

    übermorgen, 29 Januar, Mittwoch

    Zeit Temperatur Niederschläge Wind Luftdruck Luftfeuchtigkeit
    00:00 -7°C° 0 mm 2 m/S 618 mmHg 55%
    01:00 -7°C° 0 mm 2 m/S 618 mmHg 56%
    02:00 -7°C° 0 mm 2 m/S 618 mmHg 58%
    03:00 -7°C° 0 mm 2 m/S 618 mmHg 60%
    04:00 -7°C° 0 mm 2 m/S 617 mmHg 61%
    05:00 -7°C° 0 mm 2 m/S 617 mmHg 62%
    06:00 -7°C° 0 mm 2 m/S 617 mmHg 63%
    07:00 -6°C° 0 mm 2 m/S 617 mmHg 65%
    08:00 -5°C° 0 mm 2 m/S 618 mmHg 67%
    09:00 -5°C° 0 mm 2 m/S 618 mmHg 69%
    10:00 -4°C° 0 mm 2 m/S 618 mmHg 69%
    11:00 -3°C° 0 mm 2 m/S 618 mmHg 69%
    12:00 -2°C° 0 mm 2 m/S 618 mmHg 69%
    13:00 -2°C° 0 mm 2 m/S 618 mmHg 70%
    14:00 -2°C° 0 mm 2 m/S 617 mmHg 71%
    15:00 -2°C° 0 mm 2 m/S 617 mmHg 72%
    16:00 -3°C° 0 mm 2 m/S 617 mmHg 72%
    17:00 -5°C° 0 mm 2 m/S 617 mmHg 71%
    18:00 -6°C° 0 mm 2 m/S 617 mmHg 71%
    19:00 -6°C° 0 mm 2 m/S 617 mmHg 70%
    20:00 -6°C° 0 mm 2 m/S 617 mmHg 70%
    21:00 -6°C° 0 mm 2 m/S 617 mmHg 69%
    22:00 -7°C° 0 mm 2 m/S 617 mmHg 70%
    23:00 -7°C° 0 mm 2 m/S 617 mmHg 70%

    30 Januar, Donnerstag

    Zeit Temperatur Niederschläge Wind Luftdruck Luftfeuchtigkeit
    00:00 -7°C° 0 mm 2 m/S 617 mmHg 71%
    01:00 -7°C° 0 mm 2 m/S 617 mmHg 72%
    02:00 -8°C° 0 mm 2 m/S 617 mmHg 73%
    03:00 -8°C° 0 mm 2 m/S 617 mmHg 74%
    04:00 -8°C° 0 mm 2 m/S 617 mmHg 76%
    05:00 -8°C° 0 mm 2 m/S 617 mmHg 79%
    06:00 -8°C° 0 mm 2 m/S 618 mmHg 81%
    07:00 -7°C° 0 mm 2 m/S 618 mmHg 83%
    08:00 -6°C° 0 mm 2 m/S 619 mmHg 86%
    09:00 -5°C° 0 mm 2 m/S 619 mmHg 88%
    10:00 -4°C° 0 mm 2 m/S 619 mmHg 88%
    11:00 -5°C° 0 mm 3 m/S 619 mmHg 88%
    12:00 -4°C° 0 mm 3 m/S 619 mmHg 88%
    13:00 -4°C° 0 mm 3 m/S 618 mmHg 87%
    14:00 -4°C° 0 mm 3 m/S 618 mmHg 87%
    15:00 -4°C° 0 mm 3 m/S 618 mmHg 87%
    16:00 -5°C° 0 mm 3 m/S 618 mmHg 87%
    17:00 -5°C° 0 mm 3 m/S 618 mmHg 87%
    18:00 -6°C° 0 mm 3 m/S 617 mmHg 87%
    19:00 -6°C° 0 mm 3 m/S 617 mmHg 88%
    20:00 -6°C° 0 mm 3 m/S 618 mmHg 88%
    21:00 -6°C° 0 mm 3 m/S 618 mmHg 88%
    22:00 -6°C° 0 mm 3 m/S 618 mmHg 89%
    23:00 -5°C° 0 mm 3 m/S 617 mmHg 89%

    31 Januar, Freitag

    Zeit Temperatur Niederschläge Wind Luftdruck Luftfeuchtigkeit
    00:00 -5°C° 0 mm 3 m/S 617 mmHg 89%
    01:00 -5°C° 0 mm 3 m/S 617 mmHg 89%
    02:00 -5°C° 0 mm 3 m/S 617 mmHg 89%
    03:00 -6°C° 0 mm 3 m/S 617 mmHg 89%
    04:00 -6°C° 0 mm 3 m/S 616 mmHg 89%
    05:00 -6°C° 0 mm 3 m/S 616 mmHg 89%
    06:00 -6°C° 0 mm 3 m/S 616 mmHg 89%
    07:00 -5°C° 0 mm 3 m/S 616 mmHg 89%
    08:00 -5°C° 0 mm 3 m/S 616 mmHg 88%
    09:00 -4°C° 0 mm 3 m/S 616 mmHg 87%
    10:00 -2°C° 0 mm 3 m/S 615 mmHg 86%
    11:00 -2°C° 0 mm 3 m/S 615 mmHg 84%
    12:00 -1°C° 0 mm 3 m/S 615 mmHg 83%
    13:00 -1°C° 0 mm 3 m/S 614 mmHg 83%
    14:00 -1°C° 0 mm 3 m/S 614 mmHg 83%
    15:00 -1°C° 0 mm 3 m/S 613 mmHg 83%
    16:00 -1°C° 0 mm 3 m/S 613 mmHg 82%
    17:00 -2°C° 0 mm 3 m/S 613 mmHg 82%
    18:00 -4°C° 0 mm 3 m/S 612 mmHg 82%
    19:00 -4°C° 0.1 mm 3 m/S 612 mmHg 83%
    20:00 -4°C° 0.1 mm 4 m/S 612 mmHg 83%
    21:00 -4°C° 0.1 mm 4 m/S 612 mmHg 84%
    22:00 -3°C° 0.2 mm 4 m/S 612 mmHg 85%
    23:00 -4°C° 0.2 mm 5 m/S 612 mmHg 86%

    1 Februar, Samstag

    Zeit Temperatur Niederschläge Wind Luftdruck Luftfeuchtigkeit
    00:00 -4°C° 0.2 mm 5 m/S 612 mmHg 87%
    01:00 -4°C° 0.4 mm 5 m/S 611 mmHg 89%
    02:00 -4°C° 0.4 mm 5 m/S 611 mmHg 91%
    03:00 -5°C° 0.4 mm 5 m/S 611 mmHg 93%
    04:00 -5°C° 0.7 mm 5 m/S 611 mmHg 93%
    05:00 -4°C° 0.7 mm 4 m/S 611 mmHg 94%
    06:00 -4°C° 0.7 mm 4 m/S 611 mmHg 95%
    07:00 -5°C° 2.1 mm 4 m/S 611 mmHg 95%
    08:00 -5°C° 2.1 mm 3 m/S 612 mmHg 95%
    09:00 -5°C° 2.1 mm 2 m/S 612 mmHg 95%
    10:00 -5°C° 0.9 mm 2 m/S 612 mmHg 93%
    11:00 -5°C° 0.9 mm 2 m/S 612 mmHg 92%
    12:00 -4°C° 0.9 mm 2 m/S 613 mmHg 91%
    13:00 -4°C° 0.1 mm 2 m/S 613 mmHg 90%
    14:00 -5°C° 0.1 mm 2 m/S 613 mmHg 89%
    15:00 -5°C° 0.1 mm 2 m/S 613 mmHg 88%
    16:00 -6°C° 0 mm 2 m/S 613 mmHg 87%
    17:00 -8°C° 0 mm 2 m/S 613 mmHg 86%
    18:00 -8°C° 0 mm 1 m/S 613 mmHg 85%
    19:00 -8°C° 0 mm 1 m/S 614 mmHg 81%
    20:00 -8°C° 0 mm 1 m/S 614 mmHg 77%
    21:00 -9°C° 0 mm 1 m/S 615 mmHg 73%
    22:00 -9°C° 0 mm 1 m/S 615 mmHg 73%
    23:00 -9°C° 0 mm 1 m/S 615 mmHg 74%
    Mehr zeigen